Location: Basses Si�yes
(44.0835°N, 6.2037°E)
Time: 10:34:39
(UTC+00:00)

Cosmos 1898 Rocket - Pass Details

Date: 27 February 2020
Orbit: 754 x 783 km, 74.0° (Epoch: 29 March)

Event Time Altitude Azimuth Distance (km) Brightness Sun altitude
Rises 18:58:40 0° 335° (NNW) 3,217 7.2 -18.5°
Reaches altitude 10° 19:01:04 10° 332° (NNW) 2,289 6.4 -18.9°
Maximum altitude 19:06:08 58° 254° (WSW) 883 4.1 -19.8°
Drops below altitude 10° 19:11:12 10° 176° (S) 2,283 5.8 -20.7°
Sets 19:13:36 0° 173° (S) 3,208 6.6 -21.1°
